Time,TemperatureF,DewpointF,PressureIn,WindDirection,WindDirectionDegrees,WindSpeedMPH,WindSpeedGustMPH,Humidity,HourlyPrecipIn,Conditions,Clouds,dailyrainin,SoftwareType,DateUTC
2013-08-26 00:05:00,61.6,57.0,30.22,NNW,344,0.0,0.0,85,0.00,,,0.00,weatherlink.com 1.10,2013-08-26 04:05:00,
2013-08-26 00:21:00,62.1,58.0,30.21,NNW,346,0.0,1.0,85,0.00,,,0.00,weatherlink.com 1.10,2013-08-26 04:21:00,
2013-08-26 00:36:00,62.6,58.0,30.21,NNW,346,0.0,1.0,84,0.00,,,0.00,weatherlink.com 1.10,2013-08-26 04:36:00,
2013-08-26 00:51:00,63.2,59.0,30.21,North,6,0.0,0.0,85,0.00,,,0.00,weatherlink.com 1.10,2013-08-26 04:51:00,
2013-08-26 01:06:00,63.6,58.0,30.21,North,6,0.0,0.0,83,0.00,,,0.00,weatherlink.com 1.10,2013-08-26 05:06:00,
2013-08-26 01:21:00,64.1,59.0,30.21,NNW,333,0.0,1.0,83,0.00,,,0.00,weatherlink.com 1.10,2013-08-26 05:21:00,
2013-08-26 01:36:00,64.2,59.0,30.21,NW,304,0.0,1.0,82,0.00,,,0.00,weatherlink.com 1.10,2013-08-26 05:36:00,
2013-08-26 01:51:00,64.4,59.0,30.21,North,349,0.0,1.0,83,0.00,,,0.00,weatherlink.com 1.10,2013-08-26 05:51:00,
2013-08-26 02:06:00,65.1,58.0,30.21,West,276,0.0,3.0,79,0.00,,,0.00,weatherlink.com 1.10,2013-08-26 06:06:00,
2013-08-26 02:21:00,65.3,59.0,30.21,NW,315,1.0,3.0,79,0.00,,,0.00,weatherlink.com 1.10,2013-08-26 06:21:00,
2013-08-26 02:36:00,64.4,60.0,30.20,NNE,18,1.0,1.0,84,0.00,,,0.00,weatherlink.com 1.10,2013-08-26 06:36:00,
2013-08-26 02:51:00,63.7,60.0,30.18,ESE,107,0.0,2.0,87,0.02,,,0.02,weatherlink.com 1.10,2013-08-26 06:51:00,
2013-08-26 03:06:00,62.3,60.0,30.17,North,5,0.0,1.0,92,0.02,,,0.02,weatherlink.com 1.10,2013-08-26 07:06:00,
2013-08-26 03:21:00,61.7,59.0,30.16,SSE,152,0.0,1.0,92,0.02,,,0.02,weatherlink.com 1.10,2013-08-26 07:21:00,
2013-08-26 03:36:00,61.4,60.0,30.16,SSE,152,0.0,1.0,94,0.02,,,0.02,weatherlink.com 1.10,2013-08-26 07:36:00,
2013-08-26 03:51:00,61.3,60.0,30.16,SSE,152,0.0,1.0,94,0.02,,,0.04,weatherlink.com 1.10,2013-08-26 07:51:00,
2013-08-26 04:06:00,61.0,60.0,30.16,SSE,152,0.0,1.0,95,0.04,,,0.06,weatherlink.com 1.10,2013-08-26 08:06:00,
2013-08-26 04:21:00,60.8,59.0,30.16,NNE,28,0.0,1.0,95,0.06,,,0.08,weatherlink.com 1.10,2013-08-26 08:21:00,
2013-08-26 04:36:00,60.5,59.0,30.17,NNE,29,0.0,1.0,95,0.08,,,0.10,weatherlink.com 1.10,2013-08-26 08:36:00,
2013-08-26 04:51:00,60.5,59.0,30.17,NNE,29,0.0,0.0,95,0.08,,,0.12,weatherlink.com 1.10,2013-08-26 08:51:00,
2013-08-26 05:06:00,60.6,59.0,30.16,ESE,117,0.0,1.0,95,0.07,,,0.13,weatherlink.com 1.10,2013-08-26 09:06:00,
2013-08-26 05:21:00,60.9,60.0,30.16,North,5,0.0,4.0,95,0.05,,,0.13,weatherlink.com 1.10,2013-08-26 09:21:00,
2013-08-26 05:36:00,60.8,59.0,30.15,SE,134,2.0,2.0,94,0.04,,,0.14,weatherlink.com 1.10,2013-08-26 09:36:00,
2013-08-26 05:51:00,60.8,59.0,30.14,ESE,108,1.0,6.0,94,0.03,,,0.15,weatherlink.com 1.10,2013-08-26 09:51:00,
2013-08-26 06:06:00,61.1,59.0,30.13,South,176,0.0,3.0,94,0.02,,,0.15,weatherlink.com 1.10,2013-08-26 10:06:00,
2013-08-26 06:21:00,61.1,59.0,30.11,West,266,1.0,4.0,94,0.02,,,0.15,weatherlink.com 1.10,2013-08-26 10:21:00,
2013-08-26 06:36:00,61.1,59.0,30.11,SE,139,1.0,5.0,93,0.01,,,0.15,weatherlink.com 1.10,2013-08-26 10:36:00,
2013-08-26 06:51:00,61.4,60.0,30.10,ENE,70,2.0,8.0,94,0.00,,,0.15,weatherlink.com 1.10,2013-08-26 10:51:00,
2013-08-26 07:06:00,61.3,60.0,30.11,NNE,23,0.0,1.0,94,0.00,,,0.15,weatherlink.com 1.10,2013-08-26 11:06:00,
2013-08-26 07:21:00,61.4,60.0,30.10,South,174,0.0,9.0,94,0.00,,,0.15,weatherlink.com 1.10,2013-08-26 11:21:00,
2013-08-26 07:36:00,61.6,60.0,30.10,South,190,1.0,4.0,93,0.00,,,0.15,weatherlink.com 1.10,2013-08-26 11:36:00,
2013-08-26 07:51:00,61.6,60.0,30.09,North,1,0.0,3.0,94,0.00,,,0.15,weatherlink.com 1.10,2013-08-26 11:51:00,
2013-08-26 08:06:00,62.1,60.0,30.09,SSE,166,0.0,3.0,93,0.00,,,0.15,weatherlink.com 1.10,2013-08-26 12:06:00,
2013-08-26 08:21:00,62.7,60.0,30.09,SW,233,3.0,5.0,91,0.00,,,0.15,weatherlink.com 1.10,2013-08-26 12:21:00,
2013-08-26 08:36:00,63.4,61.0,30.09,NNE,19,0.0,3.0,92,0.00,,,0.15,weatherlink.com 1.10,2013-08-26 12:36:00,
2013-08-26 08:52:00,64.3,62.0,30.08,South,173,0.0,3.0,91,0.00,,,0.15,weatherlink.com 1.10,2013-08-26 12:52:00,
2013-08-26 09:07:00,66.1,62.0,30.08,SSE,158,0.0,5.0,87,0.00,,,0.15,weatherlink.com 1.10,2013-08-26 13:07:00,
2013-08-26 09:22:00,67.8,63.0,30.07,West,269,2.0,3.0,84,0.00,,,0.15,weatherlink.com 1.10,2013-08-26 13:22:00,
2013-08-26 09:37:00,68.8,63.0,30.06,SE,136,3.0,6.0,82,0.00,,,0.15,weatherlink.com 1.10,2013-08-26 13:37:00,
2013-08-26 09:52:00,69.6,64.0,30.06,SE,134,3.0,8.0,81,0.00,,,0.15,weatherlink.com 1.10,2013-08-26 13:52:00,
2013-08-26 10:07:00,70.4,64.0,30.05,SSW,194,1.0,7.0,80,0.00,,,0.15,weatherlink.com 1.10,2013-08-26 14:07:00,
2013-08-26 10:22:00,71.6,66.0,30.06,NNW,345,1.0,5.0,82,0.00,,,0.15,weatherlink.com 1.10,2013-08-26 14:22:00,
2013-08-26 10:37:00,72.4,65.0,30.05,NNW,337,1.0,5.0,77,0.00,,,0.15,weatherlink.com 1.10,2013-08-26 14:37:00,
2013-08-26 10:52:00,73.2,65.0,30.05,SW,232,1.0,3.0,75,0.00,,,0.15,weatherlink.com 1.10,2013-08-26 14:52:00,
2013-08-26 11:07:00,73.8,65.0,30.05,WNW,297,0.0,4.0,73,0.00,,,0.15,weatherlink.com 1.10,2013-08-26 15:07:00,
2013-08-26 11:22:00,74.4,66.0,30.04,WSW,257,1.0,8.0,74,0.00,,,0.15,weatherlink.com 1.10,2013-08-26 15:22:00,
2013-08-26 11:37:00,74.6,66.0,30.03,ESE,105,1.0,6.0,74,0.00,,,0.15,weatherlink.com 1.10,2013-08-26 15:37:00,
2013-08-26 11:52:00,75.2,67.0,30.03,SW,231,0.0,4.0,75,0.00,,,0.15,weatherlink.com 1.10,2013-08-26 15:52:00,
2013-08-26 12:07:00,75.2,66.0,30.02,SE,132,3.0,7.0,74,0.00,,,0.15,weatherlink.com 1.10,2013-08-26 16:07:00,
2013-08-26 12:22:00,75.1,67.0,30.02,NW,325,1.0,6.0,77,0.00,,,0.15,weatherlink.com 1.10,2013-08-26 16:22:00,
2013-08-26 12:37:00,75.6,66.0,30.02,SSW,194,5.0,11.0,73,0.00,,,0.15,weatherlink.com 1.10,2013-08-26 16:37:00,
2013-08-26 12:52:00,76.2,67.0,30.01,WNW,293,1.0,8.0,72,0.00,,,0.15,weatherlink.com 1.10,2013-08-26 16:52:00,
2013-08-26 13:07:00,76.6,67.0,30.00,NNW,335,3.0,9.0,72,0.00,,,0.15,weatherlink.com 1.10,2013-08-26 17:07:00,
2013-08-26 13:22:00,76.0,66.0,30.00,West,266,3.0,6.0,72,0.00,,,0.15,weatherlink.com 1.10,2013-08-26 17:22:00,
2013-08-26 13:37:00,75.2,66.0,29.99,SSE,155,3.0,10.0,74,0.00,,,0.15,weatherlink.com 1.10,2013-08-26 17:37:00,
2013-08-26 13:52:00,75.2,66.0,29.99,North,356,1.0,5.0,74,0.00,,,0.15,weatherlink.com 1.10,2013-08-26 17:52:00,
2013-08-26 14:07:00,74.7,67.0,29.99,ESE,105,0.0,6.0,76,0.00,,,0.15,weatherlink.com 1.10,2013-08-26 18:07:00,
2013-08-26 14:22:00,73.6,66.0,29.99,SSW,210,0.0,3.0,77,0.00,,,0.15,weatherlink.com 1.10,2013-08-26 18:22:00,
2013-08-26 14:37:00,73.4,66.0,29.98,West,263,0.0,4.0,77,0.00,,,0.15,weatherlink.com 1.10,2013-08-26 18:37:00,
2013-08-26 14:52:00,73.2,66.0,29.98,WNW,302,0.0,1.0,79,0.00,,,0.15,weatherlink.com 1.10,2013-08-26 18:52:00,
2013-08-26 15:07:00,73.5,67.0,29.98,NNW,342,0.0,2.0,80,0.00,,,0.15,weatherlink.com 1.10,2013-08-26 19:07:00,
2013-08-26 15:22:00,74.2,67.0,29.97,West,273,1.0,6.0,79,0.00,,,0.15,weatherlink.com 1.10,2013-08-26 19:22:00,
2013-08-26 15:37:00,74.4,67.0,29.97,North,349,0.0,4.0,78,0.00,,,0.15,weatherlink.com 1.10,2013-08-26 19:37:00,
2013-08-26 15:53:00,73.9,67.0,29.97,NW,321,0.0,2.0,80,0.00,,,0.15,weatherlink.com 1.10,2013-08-26 19:53:00,
2013-08-26 16:08:00,73.3,68.0,29.97,SW,219,0.0,1.0,83,0.00,,,0.15,weatherlink.com 1.10,2013-08-26 20:08:00,
2013-08-26 16:23:00,73.0,67.0,29.96,South,171,2.0,3.0,82,0.00,,,0.15,weatherlink.com 1.10,2013-08-26 20:23:00,
2013-08-26 16:38:00,72.9,68.0,29.96,NNE,30,0.0,1.0,85,0.00,,,0.15,weatherlink.com 1.10,2013-08-26 20:38:00,
2013-08-26 16:53:00,72.7,67.0,29.95,SSE,151,0.0,2.0,83,0.00,,,0.15,weatherlink.com 1.10,2013-08-26 20:53:00,
2013-08-26 17:08:00,73.5,67.0,29.95,South,186,0.0,4.0,81,0.00,,,0.15,weatherlink.com 1.10,2013-08-26 21:08:00,
2013-08-26 17:23:00,73.9,67.0,29.95,SSW,205,1.0,4.0,80,0.00,,,0.15,weatherlink.com 1.10,2013-08-26 21:23:00,
2013-08-26 17:38:00,73.8,68.0,29.95,NW,326,0.0,1.0,81,0.00,,,0.15,weatherlink.com 1.10,2013-08-26 21:38:00,
2013-08-26 17:53:00,73.3,69.0,29.95,South,171,0.0,2.0,85,0.00,,,0.15,weatherlink.com 1.10,2013-08-26 21:53:00,
2013-08-26 18:08:00,73.0,68.0,29.95,SW,216,0.0,3.0,83,0.00,,,0.15,weatherlink.com 1.10,2013-08-26 22:08:00,
2013-08-26 18:23:00,72.9,67.0,29.94,South,179,0.0,3.0,82,0.00,,,0.15,weatherlink.com 1.10,2013-08-26 22:23:00,
2013-08-26 18:38:00,72.8,67.0,29.94,South,174,0.0,2.0,83,0.00,,,0.15,weatherlink.com 1.10,2013-08-26 22:38:00,
2013-08-26 18:53:00,72.1,68.0,29.94,WNW,303,0.0,1.0,86,0.00,,,0.15,weatherlink.com 1.10,2013-08-26 22:53:00,
2013-08-26 19:08:00,71.3,67.0,29.94,ENE,67,0.0,1.0,87,0.00,,,0.15,weatherlink.com 1.10,2013-08-26 23:08:00,
2013-08-26 19:23:00,71.3,67.0,29.94,NNE,20,0.0,3.0,87,0.00,,,0.15,weatherlink.com 1.10,2013-08-26 23:23:00,
2013-08-26 19:38:00,71.3,67.0,29.94,North,5,1.0,3.0,86,0.00,,,0.15,weatherlink.com 1.10,2013-08-26 23:38:00,
2013-08-26 19:53:00,70.9,67.0,29.94,North,356,0.0,1.0,88,0.00,,,0.15,weatherlink.com 1.10,2013-08-26 23:53:00,
2013-08-26 20:08:00,70.7,67.0,29.93,North,356,0.0,1.0,87,0.00,,,0.15,weatherlink.com 1.10,2013-08-27 00:08:00,
2013-08-26 20:23:00,70.4,67.0,29.93,North,1,0.0,1.0,88,0.00,,,0.15,weatherlink.com 1.10,2013-08-27 00:23:00,
2013-08-26 20:38:00,69.9,67.0,29.94,NNW,335,0.0,1.0,89,0.00,,,0.15,weatherlink.com 1.10,2013-08-27 00:38:00,
2013-08-26 20:53:00,70.0,66.0,29.94,North,5,0.0,1.0,88,0.00,,,0.15,weatherlink.com 1.10,2013-08-27 00:53:00,
2013-08-26 21:08:00,69.7,66.0,29.94,North,4,0.0,1.0,89,0.00,,,0.15,weatherlink.com 1.10,2013-08-27 01:08:00,
2013-08-26 21:23:00,70.0,66.0,29.94,NW,319,0.0,1.0,88,0.00,,,0.15,weatherlink.com 1.10,2013-08-27 01:23:00,
2013-08-26 21:38:00,69.6,67.0,29.94,NW,319,0.0,1.0,90,0.00,,,0.15,weatherlink.com 1.10,2013-08-27 01:38:00,
2013-08-26 21:53:00,69.3,66.0,29.94,SSE,155,0.0,1.0,89,0.00,,,0.15,weatherlink.com 1.10,2013-08-27 01:53:00,
2013-08-26 22:08:00,69.0,66.0,29.94,South,188,0.0,0.0,90,0.00,,,0.15,weatherlink.com 1.10,2013-08-27 02:08:00,
2013-08-26 22:23:00,68.8,66.0,29.94,South,188,0.0,1.0,91,0.00,,,0.15,weatherlink.com 1.10,2013-08-27 02:23:00,
2013-08-26 22:38:00,68.5,66.0,29.94,South,188,0.0,1.0,91,0.00,,,0.15,weatherlink.com 1.10,2013-08-27 02:38:00,
2013-08-26 22:53:00,68.4,66.0,29.93,South,189,0.0,1.0,91,0.00,,,0.15,weatherlink.com 1.10,2013-08-27 02:53:00,
2013-08-26 23:09:00,68.4,66.0,29.93,South,188,0.0,1.0,92,0.00,,,0.15,weatherlink.com 1.10,2013-08-27 03:09:00,
2013-08-26 23:23:00,68.5,66.0,29.92,South,188,0.0,1.0,92,0.00,,,0.15,weatherlink.com 1.10,2013-08-27 03:23:00,
2013-08-26 23:38:00,68.6,66.0,29.91,South,190,0.0,1.0,92,0.00,,,0.15,weatherlink.com 1.10,2013-08-27 03:38:00,
2013-08-26 23:53:00,68.8,66.0,29.91,West,269,0.0,3.0,91,0.00,,,0.15,weatherlink.com 1.10,2013-08-27 03:53:00,